Regional Weather Roundup
Issued by NWS

Home | Current Version | Previous Version | Graphics & Text | Print | Product List | Glossary On
Versions: 1 2 3 4 5 6 7 8 9 10 11 12 13 14 15 16 17 18 19 20 21 22 23 24 25 26 27 28
000
ASUS45 KSLC 201310
RWRUT

UTAH REGIONAL WEATHER ROUNDUP
NATIONAL WEATHER SERVICE SALT LAKE CITY UT
700 AM MDT SUN AUG 20 2017

UTZ001>011-023>025-201400-

NORTHERN UTAH

CITY           SKY/WX    TMP DP  RH WIND       PRES   REMARKS
BRIGHAM CITY   PTCLDY    60  40  47 CALM      30.03S
HILL AFB       CLEAR     66  37  34 E16       30.05R
LOGAN          CLEAR     53  43  68 CALM      30.06R
OGDEN          CLEAR     64  38  38 S9        30.02R
SALT LAKE CITY PTCLDY    70  42  36 S7        30.01R
TOOELE VALLEY  CLEAR     63  36  36 S5        30.04R
WENDOVER       PTCLDY    69  32  25 SE7       30.03R
HEBER CITY     PTCLDY    50  41  71 CALM      30.15R
WEST JORDAN    CLEAR     66  46  48 S7        30.05R

$$

UTZ011>015-024>027-201400-

CENTRAL/NORTHEAST UTAH

CITY           SKY/WX    TMP DP  RH WIND       PRES   REMARKS
PROVO AIRPORT  PTCLDY    63  46  54 SE7       30.07R
MOAB/CANYONLAN CLEAR     65  37  35 CALM      30.04R
DELTA          CLEAR     59  32  36 S8        30.07R
PRICE          PTCLDY    57  38  48 CALM      30.15R
ROOSEVELT      CLOUDY    54  45  71 CALM      30.15R
VERNAL         CLOUDY    55  43  63 W5        30.13R

$$

UTZ013>016-019>022-027-201400-

SOUTHERN UTAH

CITY           SKY/WX    TMP DP  RH WIND       PRES   REMARKS
BRYCE CANYON   MOCLDY    57  44  62 NW7       30.32R
CEDAR CITY     PTCLDY    62  39  42 S3        30.15R
MILFORD        PTCLDY    59  36  42 S10       30.11R
ST GEORGE      MOSUNNY   73  45  36 CALM      29.98R
HANKSVILLE     PTCLDY    59  32  36 CALM      30.07R
BLANDING       CLEAR     65  35  32 CALM      30.22R

$$

REGIONAL REPORTS     COLORADO/ARIZONA

CITY           SKY/WX    TMP DP  RH WIND       PRES   REMARKS
CRAIG, CO      CLOUDY    44  35  70 SW3       30.21R
GRAND JUNCTION CLEAR     61  39  44 SE13      30.09R
RIFLE, CO      CLEAR     53  37  54 SE3       30.18R
MONTROSE, CO   CLOUDY    54  40  59 S5        30.19R
CORTEZ, CO     CLEAR     51  40  65 CALM      30.16R
COLORADO CITY    N/A     54  45  71 SE5       30.15R
PAGE, AZ       PTCLDY    76  37  24 SE6       30.05R
GRAND CANYON   MOCLDY    50  40  68 CALM      30.26R
KINGMAN, AZ    CLEAR     71  46  40 SE10      30.01R
FLAGSTAFF, AZ  CLOUDY    59  46  62 SW5       30.28R

$$

REGIONAL REPORTS    NEVADA/IDAHO/WYOMING

CITY           SKY/WX    TMP DP  RH WIND       PRES   REMARKS
LAS VEGAS, NV  PTCLDY    82  47  29 S3        29.88R
ELY, NY        PTCLDY    47  31  53 S12       30.18R
ELKO, NV       CLOUDY    56  33  42 CALM      30.10R
POCATELLO, ID  CLEAR     55  38  52 SW8       30.10R
BURLEY, ID     CLEAR     56  37  49 SW7       30.06R
FORT BRIDGER,    N/A     58  34  40 W9        30.25R
EVANSTON, WY   CLOUDY    58  36  43 SE5       30.23R
ROCK SPRINGS,  CLOUDY    58  33  39 SE5       30.21R

$$




USA.gov is the U.S. government's official web portal to all federal, state and local government web resources and services.